Regional Weather Roundup
Issued by NWS Grand Forks, ND

Home | Current Version | Previous Version | Text Only | Print | Product List | Glossary Off
Versions: 1 2 3 4 5 6 7 8 9 10 11 12 13 14 15 16 17 18 19 20 21 22 23 24 25 26 27 28 29 30 31 32 33 34 35 36 37 38 39 40 41 42 43 44 45 46 47 48 49 50

000
ASUS43 KFGF 161710
RWRFGF
PRAIRIE TO PINES  WEATHER ROUNDUP
NATIONAL WEATHER SERVICE EASTERN NORTH DAKOTA/GRAND FORKS ND
1200 PM CDT WED APR 16 2014

 **SATELLITE DATA USED TO AUGMENT SKY COVER AT AUTOMATED STATIONS**
 *****  WEATHER ACROSS EASTERN NORTH DAKOTA  *****

CITY           SKY/WX    TMP DP  RH WIND       PRES   REMARKS
GRAND FORKS    MOSUNNY   38   7  27 E18G28    30.09R
GRAND FRKS AFB CLOUDY    38   6  26 E15       30.13R
GRAND FRKS NWS   N/A     37 N/A N/A E15         N/A
DEVILS LAKE    CLOUDY    34   9  35 E18G28    30.12R WCI  23
FARGO          FLURRIES  31  22  69 NE20G26   30.05R WCI  19
WAHPETON ARPT  CLOUDY    32  23  69 E14G24    30.00R WCI  22
$$

 ***** WEATHER ACROSS CENTRAL AND WESTERN NORTH DAKOTA  *****

CITY           SKY/WX    TMP DP  RH WIND       PRES   REMARKS
BISMARCK       CLOUDY    29  22  75 NE16      30.07R WCI  17
MINOT          LGT SNOW  25  18  74 NE12      30.15R WCI  14
JAMESTOWN      CLOUDY    28  21  75 NE18G25   30.04R WCI  15
MINOT AFB      LGT SNOW  25  21  82 NE13      30.15R WCI  14
GARRISON         N/A     26  19  74 E18       30.09R WCI  13
WILLISTON      CLOUDY    26  21  81 E14       30.12R WCI  14
DICKINSON      CLOUDY    27  21  78 NE12      30.02R WCI  17
HETTINGER      CLOUDY    29  21  72 N10       30.01R WCI  20
$$

 *****  OTHER AIRPORT OBSERVATIONS IN OUR AREA  *****

CITY           SKY/WX    TMP DP  RH WIND       PRES   REMARKS
WALHALLA         N/A     32   5  32 E16G22    30.21R WCI  21
GRAFTON AIRPOR FAIR      36  14  41 NE17G24   30.17R
VALLEY CITY AR NOT AVBL
CANDO          CLOUDY    34  12  40 NE17      30.15R WCI  23
CAVALIER APRT  FAIR      34  10  37 NE14      30.20R WCI  24
GWINNER        CLOUDY    32  27  80 NE21      30.00R WCI  20
SHEYENNE NWR     N/A     32  23  69 NE14      29.95  WCI  22
ROLLA          CLOUDY    28  12  50 NE20      30.17R WCI  15
 ***** THE ABOVE OBSERVATIONS ARE NON NWS ARE NOT QUALITY
       CONTROLLED AND MAY MIS-REPORT RAIN FOR SNOW...
$$

  *****  WEATHER ACROSS NORTHERN MINNESOTA  *****

CITY           SKY/WX    TMP DP  RH WIND       PRES   REMARKS
FLAG ISLAND    SUNNY     28   1  31 NE7       30.22S WCI  21
WARROAD        SUNNY     28  16  59 NE13G18   30.22R WCI  18
ROSEAU         SUNNY     32   9  37 NE17      30.20R WCI  21
HALLOCK        CLOUDY    34   9  35 NE15      30.19R WCI  24
THF RVR FALLS  SUNNY     36   5  27 E18G25    30.13R
BAUDETTE       SUNNY     33   7  33 E13       30.18S WCI  24
WASKISH        MOSUNNY   37   9  30 NE13G21   30.14R
CROOKSTON      SUNNY     37  10  32 E18G24    30.12S
$$
  *****  WEATHER ACROSS CENTRAL AND WEST MINNESOTA  *****

CITY           SKY/WX    TMP DP  RH WIND       PRES   REMARKS
FOSSTON        MOSUNNY   36  16  44 E16G26    30.08R
BEMIDJI        CLOUDY    33  16  50 E17       30.09S WCI  21
PARK RAPIDS    LGT SNOW  27  22  81 E13G18    30.03S WCI  16
ELBOW LAKE     LGT SNOW  28  26  90 NE18G26   29.95R VSB 3/4 WCI  15
WADENA         LGT SNOW  27  23  86 NE17G23   29.99S WCI  14
DETROIT LAKES  CLOUDY    30  23  74 E15G26    30.01S WCI  19
MOORHEAD       NOT AVBL
FERGUS FALLS   CLOUDY    28  21  74 E18G30    29.97R WCI  16
MORRIS MN      SNOW      28  27  93 NE21G28   29.90R VSB 1/2 WCI  15
STAPLES        LGT SNOW  27  23  86 E13G21    30.00R VSB 1   WCI  16
$$
  *****  WEATHER ELSEWHERE ACROSS MINNESOTA  *****

CITY           SKY/WX    TMP DP  RH WIND       PRES   REMARKS
DULUTH         SNOW      26  21  81 E16       30.12F VSB 1/2 WCI  14
INTRNTL FALLS  SUNNY     31   6  35 NE13      30.19S WCI  21
ELY            PTSUNNY   30   9  40 SE10      30.17R WCI  21
CLOQUET        LGT SNOW  27  23  86 E17G24    30.09F VSB 3/4 WCI  14
WHEATON        LGT SNOW  30  28  93 NE16G24   29.97R WCI  19
BRAINERD       SNOW      31  24  75 NE15G22   30.02S VSB 1/2 WCI  20
HIBBING        FLURRIES  30  18  60 SE15      30.14R WCI  19
ALEXANDRIA     SNOW      27  24  89 NE21G26   29.93R VSB 1/4 WCI  13
SAINT CLOUD    HVY SNOW  29  26  89 E12G22    29.93S VSB 1/4 WCI  19
MINNEAPOLIS    CLOUDY    34  28  79 E18       29.91F WCI  23
$$

  *****  WEATHER ACROSS SOUTH DAKOTA  *****

CITY           SKY/WX    TMP DP  RH WIND       PRES   REMARKS
SIOUX FALLS    CLOUDY    47  37  68 S13       29.65R
BROOKINGS      NOT AVBL
WATERTOWN      HVY SNOW  27  25  92 NE22G31   29.81R VSB 1/4 WCI  13
HURON          LGT SNOW  31  28  89 N22G29    29.81R VSB 1   WCI  18
SISSETON         N/A     29  27  92 E20       29.93R WCI  16
ABERDEEN       CLOUDY    30  26  85 NE24G32   29.93R WCI  16
MITCHELL       CLOUDY    36  32  85 N23G30    29.72R
PIERRE         CLOUDY    32  27  81 N22       29.91R WCI  19
MOBRIDGE       CLOUDY    31  24  75 NE15      29.96R WCI  20
RAPID CITY     CLOUDY    38  29  70 N24G35    29.93R
$$

  *****  SOME WEATHER IN NEARBY STATES *****

CITY           SKY/WX    TMP DP  RH WIND       PRES   REMARKS
GLASGOW MT     CLOUDY    33  22  63 E8        30.08R
GREAT FALLS MT CLOUDY    38  32  79 NW8       29.98R
CHEYENNE WY    CLOUDY    38  25  59 N14G23    29.95R
SCOTTSBLUFF NE MOSUNNY   50  27  40 N29G38    29.91R
OMAHA NE       CLOUDY    56  27  32 S25G38    29.72F
DES MOINES IA  CLOUDY    61  29  29 S30G38    29.86F
DAVENPORT IA   MOSUNNY   50  30  46 S25G36    30.10F
CHICAGO IL     CLOUDY    45  24  43 S20       30.26F
EAU CLAIRE WI  CLOUDY    35  27  72 E15G22    29.99F
LA CROSSE WI   CLOUDY    49  25  39 SE20G28   29.98F
$$

  *****  SOME NATIONAL WEATHER *****

CITY           SKY/WX    TMP DP  RH WIND       PRES   REMARKS
LA GUARDIA NY  MOSUNNY   42  16  34 N15G21    30.39R
RALEIGH NC     SUNNY     47  24  40 NE12G25   30.38F
ATLANTA GA     SUNNY     53  26  35 E10G18    30.28F
NEW ORLEANS LA MOSUNNY   59  40  49 SE7       30.23F
OKLAHOMA CITY  MOSUNNY   63  27  25 S32G41    29.95F
ALBUQUERQUE NM MOSUNNY   61   9  12 SW7       29.93S
SALT LAKE CITY PTSUNNY   52  21  29 NW9       30.02R
LOS ANGELES CA MOSUNNY   64  51  62 SE6       29.86F
BOISE ID       SUNNY     51  20  29 N5        30.06F
SEATTLE WA     LGT RAIN  50  46  86 S9        30.06S
$$

*** WEATHER ACROSS MANITOBA...SASKATCHEWAN AND ONTARIO ***
                ***ONTARIO***

CITY           SKY/WX    TMP DP  RH WIND       PRES   REMARKS
GERALDTON      MOSUNNY   25   1  36 NW15      30.25R WCI  12
THUNDER BAY    PTSUNNY   30   9  40 E8        30.29F WCI  23
SIOUX LOOKOUT  MOSUNNY   25   0  33 NW3       30.26S
TORONTO        PTSUNNY   36  16  44 W7G18     30.49R
BIG TROUT LK   CLOUDY     9  -2  61 W16       30.29R WCI  -9
PICKLE LAKE    MOSUNNY   21   1  42 NW6       30.26R WCI  14
DRYDEN         SUNNY     27   0  31 NE8       30.23S WCI  18
KENORA         MOSUNNY   27   1  33 N9        30.23F WCI  17
$$
                *** MANITOBA***

CITY           SKY/WX    TMP DP  RH WIND       PRES   REMARKS
BRANDON        CLOUDY    27   7  43 NE18      30.28R WCI  13
DAUPHIN        SUNNY     23  10  58 NE9       30.36R WCI  13
ISLAND LAKE    MOSUNNY   16  -4  41 W5        30.37S WCI   9
PILOT MOUND      N/A     27  10  50 NE17G23     N/A  WCI  14
THE PAS        SUNNY     16   3  57 N7        30.44R WCI   6
THOMPSON       MOSUNNY   14   0  52 NW8       30.42F WCI   3
WINNIPEG       MOSUNNY   28  10  47 N15       30.29R WCI  17
LYNN LAKE      SUNNY     14   0  52 NW9G18    30.43S WCI   2
CHURCHILL      CRYSTALS   9   0  66 NW16G24   30.30F WCI  -9
GILLAM         MOSUNNY    9  -4  56 W14       30.37S WCI  -8
$$
                ***SASKATCHEWAN***

CITY           SKY/WX    TMP DP  RH WIND       PRES   REMARKS
ESTEVAN        LGT SNOW  25  18  74 E15       30.19R WCI  12
KINDERSLEY     FLURRIES  27  21  80 E13       30.13R WCI  16
LLOYDMINSTER   PTSUNNY   27  19  74 SE16      30.17R WCI  14
PRINCE ALBERT  SUNNY     25   7  46 E13G18    30.33R WCI  13
REGINA         CLOUDY    27  21  80 E18       30.21R WCI  13
YORKTON        SUNNY     27   7  43 E12       30.29R WCI  16
N. BATTLEFORD  MOSUNNY   27  19  74 E21       30.24R WCI  13
LA RONGE       SUNNY     19   3  49 NE10      30.41R WCI   8
SASKATOON      PTSUNNY   28  21  74 E15       30.25R WCI  17
SWIFT CURRENT  LGT SNOW  27  23  86 SE15      30.08R WCI  15
$$
NOTE: THESE ARE AUTOMATED STATIONS WITH LIMITED QUALITY CONTROL
      "FAIR" INDICATES FEW OR NO CLOUDS BELOW 12,000 FEET WITH NO
      SIGNIFICANT WEATHER AND/OR OBSTRUCTIONS TO VISIBILITY.
      SKY/WX - SKY CONDITION AND SIGNIFICANT WEATHER.
      TMP - AIR TEMPERATURE.    DP   - DEWPOINT TEMPERATURE.
      RH  - RELATIVE HUMIDITY.  PRES - PRESSURE.
      HX  - HEAT INDEX.         WCI  - WIND CHILL INDEX.
$



USA.gov is the U.S. government's official web portal to all federal, state and local government web resources and services.